This is the latest recevied weather packets stored in our database for station/object K6HFP. If no packets are shown the sender has not sent any weather packets the latest 10 day(s).
| Time | Temp. | Humidity | Pressure | Rain* | Wind** | Luminosity | Snow |
|---|---|---|---|---|---|---|---|
| 1777695043 | 20.56° C | 58% | 1010.3 hPa | 0 mm | - | 0 W/m² | - |
| 1777694739 | 21.11° C | 56% | 1010.3 hPa | 0 mm | - | 0 W/m² | - |
| 1777694437 | 21.11° C | 55% | 1010.2 hPa | 0 mm | - | 0 W/m² | - |
| 1777694132 | 21.11° C | 55% | 1010.1 hPa | 0 mm | - | 0 W/m² | - |
| 1777693830 | 21.11° C | 56% | 1010.3 hPa | 0 mm | - | 0 W/m² | - |
| 1777693528 | 21.67° C | 55% | 1010.2 hPa | 0 mm | - | 0 W/m² | - |
| 1777693227 | 21.67° C | 53% | 1009.8 hPa | 0 mm | - | 0 W/m² | - |
| 1777692924 | 21.67° C | 53% | 1010 hPa | 0 mm | - | 0 W/m² | - |
| 1777692621 | 21.67° C | 54% | 1009.9 hPa | 0 mm | - | 0 W/m² | - |
| 1777692317 | 21.67° C | 54% | 1009.9 hPa | 0 mm | - | 0 W/m² | - |
| 1777692014 | 21.67° C | 53% | 1009.8 hPa | 0 mm | - | 0 W/m² | - |
| 1777691712 | 21.67° C | 54% | 1009.7 hPa | 0 mm | - | 0 W/m² | - |
| 1777691410 | 21.67° C | 54% | 1009.8 hPa | 0 mm | - | 1 W/m² | - |
| 1777691108 | 21.67° C | 55% | 1009.5 hPa | 0 mm | - | 2 W/m² | - |
| 1777690806 | 21.67° C | 55% | 1009.8 hPa | 0 mm | - | 3 W/m² | - |
| 1777690503 | 22.22° C | 54% | 1009.7 hPa | 0 mm | - | 6 W/m² | - |
| 1777690201 | 22.22° C | 55% | 1009.7 hPa | 0 mm | - | 10 W/m² | - |
| 1777689898 | 22.22° C | 56% | 1009.7 hPa | 0 mm | - | 15 W/m² | - |
| 1777689596 | 22.22° C | 56% | 1009.6 hPa | 0 mm | - | 19 W/m² | - |
| 1777689293 | 22.22° C | 56% | 1009.9 hPa | 0 mm | - | 25 W/m² | - |
| 1777688991 | 22.22° C | 54% | 1009.7 hPa | 0 mm | - | 29 W/m² | - |
| 1777688687 | 22.78° C | 53% | 1009.7 hPa | 0 mm | - | 37 W/m² | - |
| 1777688384 | 22.78° C | 54% | 1009.6 hPa | 0 mm | - | 46 W/m² | - |
| 1777688082 | 22.78° C | 52% | 1009.8 hPa | 0 mm | - | 55 W/m² | - |
| 1777687778 | 23.33° C | 53% | 1009.7 hPa | 0 mm | - | 61 W/m² | - |
* Rain latest hour (hover to see other rain measurements)
** Current wind speed in m/s (hover to see current wind gust speed)